KK4XZ Weather Reports


time (UTC)temp
C
wind
direction
speed
KPH
gust
KPH
rain 1hr
cm
rain 24hr
cm
rain mn
cm
humidity
%
barometer
mb
20260505213524 22 199 4.8 11.3 0.00 0.00 0.00 68 1017.0
20260505212519 22 193 6.4 11.3 0.00 0.00 0.00 66 1016.8
20260505211534 22 195 4.8 19.3 0.00 0.00 0.00 64 1017.1
20260505210530 23 203 6.4 11.3 0.00 0.00 0.00 62 1017.1
20260505205525 22 199 6.4 14.5 0.00 0.00 0.00 62 1017.1
20260505204520 23 212 6.4 12.9 0.00 0.00 0.00 61 1017.0
20260505203535 23 216 6.4 14.5 0.00 0.00 0.00 60 1017.0
20260505202530 23 208 4.8 9.7 0.00 0.00 0.00 61 1016.9
20260505201525 23 198 6.4 12.9 0.00 0.00 0.00 59 1016.9
20260505200521 23 207 6.4 11.3 0.00 0.00 0.00 59 1017.1
20260505195537 24 175 3.2 9.7 0.00 0.00 0.00 57 1017.3
20260505194531 23 204 4.8 12.9 0.00 0.00 0.00 58 1017.5
20260505193526 23 202 8.0 20.9 0.00 0.00 0.00 57 1017.8
20260505192521 23 215 4.8 9.7 0.00 0.00 0.00 58 1017.8
20260505191516 23 217 4.8 8.0 0.00 0.00 0.00 56 1017.8
20260505190532 23 204 6.4 16.1 0.00 0.00 0.00 58 1017.9
20260505185527 24 244 4.8 9.7 0.00 0.00 0.00 58 1017.8
20260505184522 24 218 6.4 16.1 0.00 0.00 0.00 58 1017.7
20260505183517 24 217 6.4 11.3 0.00 0.00 0.00 58 1018.0
20260505182533 23 199 4.8 12.9 0.00 0.00 0.00 61 1018.1
20260505181529 23 196 6.4 14.5 0.00 0.00 0.00 59 1018.2
20260505180523 23 212 6.4 12.9 0.00 0.00 0.00 60 1018.1
20260505175517 23 226 4.8 9.7 0.00 0.00 0.00 62 1018.3
20260505174533 23 190 6.4 14.5 0.00 0.00 0.00 60 1018.4
20260505173528 23 202 6.4 12.9 0.00 0.00 0.00 58 1018.2
20260505172523 23 200 4.8 12.9 0.00 0.00 0.00 57 1018.5
20260505171518 23 216 4.8 9.7 0.00 0.00 0.00 57 1018.5
20260505170534 23 196 6.4 12.9 0.00 0.00 0.00 56 1018.7
20260505165529 23 219 4.8 11.3 0.00 0.00 0.00 57 1018.6
20260505164523 23 188 4.8 11.3 0.00 0.00 0.00 57 1018.7
20260505163518 24 185 8.0 14.5 0.00 0.00 0.00 55 1018.7
20260505162534 24 205 4.8 12.9 0.00 0.00 0.00 55 1018.7
20260505161529 23 172 8.0 16.1 0.00 0.00 0.00 57 1018.8
20260505160524 23 179 4.8 11.3 0.00 0.00 0.00 58 1018.9
20260505152525 23 200 3.2 9.7 0.00 0.00 0.00 59 1019.0
20260505151520 23 208 3.2 6.4 0.00 0.00 0.00 59 1018.9
20260505150535 23 199 4.8 11.3 0.00 0.00 0.00 59 1018.9
20260505140527 22 191 3.2 9.7 0.00 0.00 0.00 64 1018.6
20260505124528 20 176 4.8 9.7 0.00 0.00 0.00 77 1018.4
20260505123524 18 165 4.8 9.7 0.00 0.00 0.00 89 1018.3
20260505122518 17 150 1.6 6.4 0.00 0.00 0.00 96 1018.1
20260505121534 16 150 3.2 6.4 0.00 0.00 0.00 96 1018.2
20260505120529 15 124 1.6 6.4 0.00 0.00 0.00 96 1018.3
20260505115524 15 111 1.6 4.8 0.00 0.00 0.00 97 1018.2
20260505114520 15 118 1.6 4.8 0.00 0.00 0.00 96 1018.2
20260505113535 14 114 1.6 4.8 0.00 0.00 0.00 96 1018.1
20260505112530 13 101 1.6 4.8 0.00 0.00 0.00 96 1017.9
20260505111525 13 86 1.6 4.8 0.00 0.00 0.00 96 1017.7
20260505110521 13 102 1.6 4.8 0.00 0.00 0.00 96 1017.6
20260505101516 13 100 3.2 6.4 0.00 0.00 0.00 95 1017.1
20260505100532 13 110 1.6 4.8 0.00 0.00 0.00 94 1017.0
20260505095527 13 116 3.2 6.4 0.00 0.00 0.00 94 1017.0
20260505094522 13 128 3.2 6.4 0.00 0.00 0.00 94 1016.9
20260505093517 14 126 1.6 6.4 0.00 0.00 0.00 94 1016.9
20260505092532 14 44 3.2 6.4 0.00 0.00 0.00 94 1016.7
20260505091527 14 51 3.2 6.4 0.00 0.00 0.00 94 1016.6
20260505090524 14 82 1.6 6.4 0.00 0.00 0.00 93 1016.4
20260505085518 14 79 3.2 8.0 0.00 0.00 0.00 92 1016.5
20260505084533 15 130 3.2 8.0 0.00 0.00 0.00 92 1016.5
20260505083528 15 42 3.2 4.8 0.00 0.00 0.00 91 1016.3
20260505082523 15 38 3.2 6.4 0.00 0.00 0.00 90 1016.5
20260505081518 15 117 1.6 6.4 0.00 0.00 0.00 89 1016.4
20260505080534 15 137 1.6 4.8 0.00 0.00 0.00 88 1016.3
20260505075529 16 137 0.0 1.6 0.00 0.00 0.00 88 1016.3
20260505074524 16 87 0.0 1.6 0.00 0.00 0.00 87 1016.3
20260505073520 16 0.0 0.0 0.00 0.00 0.00 86 1016.3
20260505072534 16 74 0.0 3.2 0.00 0.00 0.00 84 1016.4
20260505071529 17 104 0.0 1.6 0.00 0.00 0.00 82 1016.4
20260505070525 17 146 0.0 3.2 0.00 0.00 0.00 81 1016.4
20260505065520 17 127 0.0 4.8 0.00 0.00 0.00 81 1016.3
20260505064535 17 158 1.6 6.4 0.00 0.00 0.00 79 1016.4
20260505063530 17 151 1.6 4.8 0.00 0.00 0.00 79 1016.6
20260505062525 17 138 0.0 4.8 0.00 0.00 0.00 78 1016.7
20260505061520 17 156 1.6 4.8 0.00 0.00 0.00 77 1016.8
20260505060535 18 154 1.6 4.8 0.00 0.00 0.00 76 1016.8
20260505055531 18 170 1.6 4.8 0.00 0.00 0.00 76 1017.0
20260505054525 18 164 3.2 6.4 0.00 0.00 0.00 75 1017.1
20260505053521 18 166 3.2 6.4 0.00 0.00 0.00 75 1017.2
20260505052536 18 163 3.2 4.8 0.00 0.00 0.00 74 1017.2
20260505051531 18 173 1.6 6.4 0.00 0.00 0.00 74 1017.3
20260505050526 18 175 3.2 8.0 0.00 0.00 0.00 74 1017.3
20260505041522 18 172 3.2 8.0 0.00 0.00 0.00 71 1017.4
20260505040517 18 171 1.6 6.4 0.00 0.00 0.00 71 1017.4
20260505035532 18 165 3.2 6.4 0.00 0.00 0.00 70 1017.3
20260505034527 18 168 3.2 6.4 0.00 0.00 0.00 69 1017.4
20260505033523 18 169 1.6 4.8 0.00 0.00 0.00 67 1017.4
20260505032518 18 169 3.2 9.7 0.00 0.00 0.00 67 1017.3
20260505031533 18 174 3.2 8.0 0.00 0.00 0.00 66 1017.4
20260505030528 18 172 3.2 8.0 0.00 0.00 0.00 66 1017.3
20260505025523 18 175 3.2 9.7 0.00 0.00 0.00 66 1017.3
20260505024518 18 161 1.6 6.4 0.00 0.00 0.00 66 1017.6
20260505023534 19 180 1.6 4.8 0.00 0.00 0.00 65 1017.6
20260505022528 18 178 3.2 8.0 0.00 0.00 0.00 64 1017.6
20260505021523 19 189 4.8 9.7 0.00 0.00 0.00 64 1017.5
20260505020519 18 170 3.2 6.4 0.00 0.00 0.00 64 1017.6
20260505015534 19 185 3.2 8.0 0.00 0.00 0.00 63 1017.5
20260505014529 19 178 3.2 12.9 0.00 0.00 0.00 63 1017.2
20260505013525 19 171 3.2 8.0 0.00 0.00 0.00 62 1017.1
20260505012520 19 183 4.8 11.3 0.00 0.00 0.00 62 1017.1
20260505011535 19 178 4.8 9.7 0.00 0.00 0.00 62 1017.0
20260505010530 19 174 3.2 12.9 0.00 0.00 0.00 62 1016.9
20260505005525 18 177 3.2 8.0 0.00 0.00 0.00 62 1016.8
20260505004521 19 191 3.2 6.4 0.00 0.00 0.00 61 1016.7
20260505003536 19 178 3.2 8.0 0.00 0.00 0.00 60 1016.7
20260505002531 19 170 3.2 9.7 0.00 0.00 0.00 59 1016.8
20260505001526 19 180 4.8 9.7 0.00 0.00 0.00 60 1016.6
20260505000521 19 181 3.2 9.7 0.00 0.00 0.00 61 1016.5
20260504235516 19 181 4.8 14.5 0.00 0.00 0.00 61 1016.7
20260504234531 19 180 3.2 9.7 0.00 0.00 0.00 62 1016.5
20260504233527 20 181 4.8 11.3 0.00 0.00 0.00 63 1016.4
20260504232521 20 195 3.2 8.0 0.00 0.00 0.00 61 1016.4
20260504231516 20 181 4.8 12.9 0.00 0.00 0.00 60 1016.5
20260504230531 20 193 4.8 11.3 0.00 0.00 0.00 58 1016.4
20260504225527 20 192 4.8 11.3 0.00 0.00 0.00 59 1016.4
20260504224522 20 193 4.8 11.3 0.00 0.00 0.00 59 1016.5
20260504223517 20 190 6.4 16.1 0.00 0.00 0.00 58 1016.4
20260504222532 20 200 6.4 14.5 0.00 0.00 0.00 57 1016.4
20260504221527 21 195 6.4 14.5 0.00 0.00 0.00 56 1016.4
20260504220523 21 188 3.2 8.0 0.00 0.00 0.00 59 1016.4
20260504215518 21 205 4.8 12.9 0.00 0.00 0.00 59 1016.3
20260504214533 21 193 6.4 12.9 0.00 0.00 0.00 56 1016.4